Retour au catalogue

STARLINK-3375

ActifCommunicationsVLEO
NORAD 51114·PAYLOAD·🇺🇸 United States

Lancé Jan 19, 2022 depuis Cape Canaveral Space Force Station

Loading…

Prochains Passages (prochaines 24 heures)

TLE

FraisSource: CelesTrak SupGP

Époque: Sep 14, 2026, 21:46 UTC

1 51114C 22005L   26257.90743056 -.00025850  00000+0 -83221-3 0  2574
2 51114  53.1571 149.8131 0001440  86.1615  91.7300 15.31678603    10

Suivez STARLINK-3375 en temps réel avec AllMySat

Download on the App Store